Location: Fort Frances
(48.6170°N, 93.4170°W)
Time: 16:47:12
(UTC-06:00)

Daily predictions for brighter satellites

Satellite Brightness Start Highest point End
(mag) Time Altitude Azimuth Time Altitude Azimuth Time Altitude Azimuth
Meteor 1-13 Rocket 4.2 18:20:17 10° N 18:25:52 71° ENE 18:31:30 10° SSE
Geosat 4.1 18:25:23 10° NNE 18:30:27 83° WNW 18:35:29 10° SW
Cosmos 2219 3.9 18:28:20 10° SSE 18:33:23 33° ESE 18:38:26 10° NE
Abrixas rocket 4.0 18:32:18 10° SSW 18:34:44 19° SE 18:37:11 10° E
FREGAT/IRIS 2.9 18:32:21 10° SSE 18:35:20 48° ENE 18:38:21 10° N
Cosmos 2227 Rocket 3.9 18:34:37 10° ESE 18:35:59 11° E 18:37:23 10° E
Cosmos 1023 Rocket 4.5 18:31:51 10° S 18:36:53 61° ESE 18:41:59 10° NNE
Helios 1A 4.4 18:34:43 10° ESE 18:37:40 19° ENE 18:40:36 10° NNE
Cosmos 1300 Rocket 3.6 18:35:46 10° S 18:40:07 60° E 18:44:31 10° NNE
Cosmos 1536 3.3 18:37:42 10° SSE 18:41:22 37° E 18:45:03 10° NNE
SL-16 R/B 3.7 18:39:48 10° N 18:43:49 19° NE 18:47:23 12° E
Cosmos 1340 3.7 18:44:15 10° NNW 18:47:58 52° W 18:51:38 10° S
COSMO-SKYMED 1 3.0 18:44:05 10° N 18:48:25 67° WNW 18:52:43 10° SSW
Cosmos 1437 4.4 18:49:32 10° NNE 18:51:51 17° ENE 18:52:45 16° E
Cosmos 1602 3.7 18:49:07 10° S 18:53:01 89° ESE 18:56:59 10° N
Cosmos 1741 Rocket 4.0 18:55:00 10° S 19:00:06 59° ESE 19:05:15 10° NNE
Resurs 01 Rocket 1.7 18:57:48 10° SSE 19:02:07 56° ENE 19:06:26 10° N
Cosmos 1833 4.4 18:57:03 10° SW 19:02:44 75° WNW 19:08:24 10° NNE
Cosmos 2333 Rocket 2.3 19:01:22 10° NNW 19:07:03 58° ENE 19:12:44 10° SE
Cosmos 1980 4.0 19:02:33 10° NNW 19:08:03 48° NE 19:12:50 13° SE
Meteor 1-11 Rocket 3.9 19:02:16 10° S 19:08:07 89° WNW 19:14:07 10° NNE
Meteor 1-28 Rocket 4.5 19:04:53 10° N 19:08:32 44° WNW 19:12:11 10° SW
Cosmos 1140 Rocket 3.7 19:03:41 10° SSW 19:08:50 76° WNW 19:14:02 10° NNE
Cosmos 614 Rocket 3.9 19:04:30 10° SSW 19:09:35 86° ESE 19:14:42 10° NNE
Resurs 1-3 3.6 19:08:12 10° SSE 19:12:31 60° ENE 19:16:51 10° N
FENGYUN 3A 3.6 19:08:18 10° SSE 19:13:43 88° ENE 19:19:11 10° NNW
Cosmos 1633 3.8 19:11:38 10° SSW 19:15:11 45° WNW 19:18:45 10° N
Okean 1 Rocket 3.4 19:16:32 10° SSW 19:21:00 70° W 19:25:30 10° N
Cosmos 1892 Rocket 3.6 19:16:47 10° N 19:21:04 54° ENE 19:25:20 10° SSE
Cosmos 468 Rocket 3.9 19:18:07 10° NNW 19:23:23 72° ENE 19:28:38 10° SSE
Cosmos 1025 Rocket 3.2 19:19:00 10° NNW 19:23:25 79° W 19:27:48 10° S
SL-19 R/B 4.5 19:17:52 10° SSE 19:23:40 89° WSW 19:29:56 10° NNW
USA 229 DEB 4.1 19:19:18 10° NW 19:26:22 68° SW 19:33:32 10° SSE
USA 229 4.1 19:19:24 10° NW 19:26:28 69° SW 19:33:39 10° SSE
USA 186 2.3 19:31:50 36° NE 19:31:50 36° NE 19:33:54 10° N
Cosmos 1515 4.0 19:28:22 10° N 19:32:06 44° ENE 19:33:04 36° ESE
Cosmos 2074 Rocket 3.9 19:26:00 10° S 19:32:15 84° E 19:38:36 10° N
Spot 2 Rocket 3.6 19:27:13 10° SSE 19:32:16 82° WSW 19:37:24 10° NNW
Meteor 1-5 Rocket 4.2 19:30:26 10° S 19:36:23 83° E 19:42:16 10° NNE
Cosmos 2082 4.4 19:32:41 10° SSE 19:37:36 30° ESE 19:37:59 30° E
USA 215 3.9 19:33:11 14° NE 19:38:37 49° NNW 19:44:50 10° W
Cosmos 2184 Rocket 4.0 19:32:25 10° S 19:38:44 89° ESE 19:45:01 10° N
NOSS 3-1 (A) 4.0 19:31:41 10° NW 19:39:01 67° NE 19:44:06 25° ESE
Spot 1 3.8 19:39:07 16° SSE 19:42:18 81° ENE 19:46:34 10° NNW
Cosmos 332 Rocket 4.0 19:37:59 10° NNW 19:42:46 49° ENE 19:44:09 38° ESE
Meteor 2-13 Rocket 4.3 19:37:09 10° S 19:43:09 68° E 19:49:14 10° NNE
ATLAS 2AS CENTAUR R/B 3.8 19:36:51 10° NW 19:44:20 37° NNE 19:48:05 25° ENE
Cosmos 1814 Rocket 3.8 19:39:18 10° NNW 19:44:30 81° ENE 19:47:53 22° SSE
Cosmos 405 Rocket 2.9 19:40:33 10° NNW 19:44:39 79° W 19:48:31 11° S
ERS-1 Rocket 3.7 19:45:10 32° ENE 19:45:24 32° ENE 19:49:51 10° N
Cosmos 1544 Rocket 3.4 19:44:06 10° S 19:48:21 62° E 19:52:39 10° NNE
Envisat 3.1 19:47:01 35° ESE 19:48:48 51° ENE 19:53:43 10° N
USA 32 4.1 19:47:11 10° N 19:52:20 53° E 19:54:07 37° SE
Nadezhda 3 Rocket 3.8 19:46:13 10° N 19:52:25 77° E 19:58:37 10° SSE
Cosmos 371 Rocket 3.6 19:47:48 10° NNW 19:52:32 47° ENE 19:53:07 44° E
H-2A R/B 3.7 19:48:59 10° S 19:52:35 47° W 19:56:16 10° NNW
ALOS 3.7 19:48:31 10° SSW 19:52:53 39° W 19:57:17 10° NNW
Cosmos 2237 Rocket 2.1 19:47:15 10° NNW 19:53:00 89° NE 19:56:29 25° SSE
CZ-2D R/B 3.6 19:49:36 10° S 19:53:23 62° WSW 19:57:12 10° NNW
NOSS 0 Rocket 4.1 19:47:37 10° NNW 19:53:46 70° WSW 19:59:13 13° SSE
Aureole 2 Rocket 3.8 19:51:51 10° N 19:53:45 26° NNE 19:53:45 26° NNE
COSMOS 2428 4.4 19:51:56 10° NW 19:56:56 32° WSW 20:01:55 10° SSW
NOSS 3-1 (C) 4.0 19:49:29 10° NW 19:56:56 88° SW 20:02:15 25° SE
Cosmos 1066 Rocket 4.1 19:52:09 10° N 19:57:47 63° ENE 20:00:03 35° SE
Cosmos 2297 Rocket 3.2 19:53:27 10° S 19:56:25 27° SSE 19:56:25 27° SSE
Cosmos 1602 Rocket 3.9 19:55:18 10° N 19:59:04 45° NE 19:59:04 45° NE
Cosmos 1626 Rocket 3.7 20:00:10 10° N 20:04:09 53° NE 20:04:09 53° NE
Meteor 1-12 Rocket 4.2 19:58:46 10° S 20:04:39 64° E 20:10:30 10° NNE
SJ-11-01 4.2 20:04:08 55° SE 20:04:58 68° ENE 20:09:44 10° N
Cosmos 2219 Rocket 3.1 19:59:39 10° NW 20:05:00 47° WSW 20:10:21 10° S
Cosmos 2341 Rocket 4.0 20:00:49 10° S 20:07:05 63° E 20:13:23 10° NNE
Cosmos 2154 Rocket 3.9 20:01:52 10° S 20:08:13 82° E 20:14:34 10° N
Gbstr 26 Del rocket 2.7 20:04:35 10° WSW 20:08:15 71° NNW 20:08:15 71° NNW
Helios 1B rocket 2.3 20:05:16 10° NNE 20:09:28 88° ESE 20:13:37 10° SSW
Abrixas rocket 3.6 20:07:52 10° WSW 20:09:57 34° SW 20:09:57 34° SW
Helios 1A 3.7 20:10:06 19° S 20:12:54 51° W 20:16:58 10° NNW
Cosmos 1441 Rocket 3.3 20:09:36 10° NNW 20:13:32 79° W 20:13:32 79° W
Cosmos 2219 4.1 20:11:48 10° SW 20:17:22 48° NW 20:22:56 10° NNE
Cosmos 1486 Rocket 4.1 20:12:30 10° S 20:23:50 - NNE 20:16:55 56° SSE
Cosmos 2227 Rocket 2.0 20:13:20 10° SSW 20:18:57 68° ESE 20:20:36 45° NE
Cosmos 1939 Rocket 3.5 20:21:00 46° N 20:21:00 46° N 20:23:54 10° NNW
Cosmos 841 Rocket 3.4 20:20:35 10° NNW 20:25:46 79° WSW 20:26:32 64° S
Cosmos 1455 Rocket 3.3 20:21:31 10° SSW 20:25:52 67° W 20:30:14 10° N
SL-16 R/B 2.0 20:23:11 10° NNW 20:28:55 78° ENE 20:29:17 74° ESE
H-2A R/B 3.8 20:31:16 20° NNE 20:31:16 20° NNE 20:33:36 10° N
Cosmos 1763 Rocket 4.0 20:31:17 10° NNW 20:36:16 54° WSW 20:37:34 42° SSW
Meteor 2-8 Rocket 4.5 20:30:24 10° NNW 20:36:28 76° W 20:38:49 39° S
Cosmos 962 Rocket 4.4 20:32:13 10° SSW 20:38:24 81° W 20:44:34 10° N
Resurs 01 Rocket 4.3 20:35:57 10° SW 20:38:56 18° W 20:41:57 10° NW
Cosmos 540 Rocket 4.0 20:35:17 10° NNW 20:39:13 49° N 20:39:13 49° N
Meteor 2-19 Rocket 4.3 20:41:22 78° ESE 20:41:34 79° E 20:47:45 10° NNE
GEOS 3 Rocket 3.8 20:49:28 64° N 20:49:58 69° NW 20:55:12 10° SW
Cosmos 2333 Rocket 4.0 20:46:14 10° NW 20:50:58 27° WSW 20:55:04 13° SSW
SPOT 5 4.3 21:04:11 33° N 21:04:11 33° N 21:07:02 10° NNW
USA 215 3.9 21:20:32 43° NNE 21:20:57 44° N 21:27:03 10° WNW
SL-8 Rocket 4.4 21:22:17 62° NW 21:22:17 62° NW 21:28:07 10° N
ERS-1 Rocket 4.4 21:25:09 35° WNW 21:25:09 35° WNW 21:28:50 10° NNW
ATLAS 2AS CENTAUR R/B 3.1 21:28:12 10° NW 21:35:33 74° NW 21:35:33 74° NW
Cosmos 2297 Rocket 4.4 21:37:14 10° WSW 21:50:08 - NNE 21:38:27 16° WSW
Cosmos 2227 Rocket 4.1 21:58:47 10° WSW 22:09:15 - NNE 22:02:45 26° WNW
H-2A R/B 4.3 22:11:53 21° NNW 22:11:53 21° NNW 22:13:40 10° NNW
SL-16 R/B 4.5 22:08:31 10° WNW 22:11:12 18° W 22:11:12 18° W
